Home   Weather   Changchun   Past weeks

Flag for China Past Weather in Changchun, Jilin, China — Yesterday and Last 2 Weeks

Now
50 °F

Sunny.


Feels Like: 45 °F
Forecast: 47 / 80 °F
Wind: 13 mph from Southwest

Location: Changchun Airport

Current Time: Apr 29, 2017 at 5:57:41 am

Latest Report: Apr 29, 2017 at 5:00 am


Visibility: 10 mi

Pressure: 29.47 "Hg

Humidity: 30%

Dew Point: 19 °F

Location of ChangchunLocation

Past Weather in Changchun — Graph

°F

Changchun Temperature Yesterday

Maximum temperature yesterday: 66 °F (at 1:00 pm)
Minimum temperature yesterday: 43 °F (at 12:00 am)
Average temperature yesterday: 56 °F

High & Low Weather Summary for the Past Weeks

 TemperatureHumidityPressure
High75 °F (Apr 15, 1:00 pm)87% (Apr 20, 1:00 pm)30.04 "Hg (Apr 20, 1:00 pm)
Low32 °F (Apr 21, 4:00 am)7% (Apr 16, 4:00 pm)29.33 "Hg (Apr 18, 4:00 am)
Average51 °F42%29.74 "Hg
* Reported Apr 14 5:00 am — Apr 29 5:00 am, Changchun, Weather by CustomWeather, © 2017

Note: Actual official high and low records may vary slightly from our data, if they occured in-between our weather recording intervals... More about our weather records

Advertising

Changchun Weather History for the Previous 24 Hours

Scroll right to see more
 ConditionsComfort  
Time TempWeatherWind HumidityBarometerVisibility
5:00 am
Sat, Apr 29
50 °FSunny.13 mph30%29.47 "Hg10 mi
4:00 am46 °FClear.8 mph34%29.50 "Hg10 mi
3:00 am46 °FClear.8 mph34%29.53 "Hg10 mi
2:00 am45 °FClear.6 mph37%29.56 "Hg10 mi
1:00 am48 °FClear.8 mph32%29.56 "Hg10 mi
12:00 am48 °FClear.8 mph37%29.56 "Hg10 mi
11:00 pm
Fri, Apr 28
45 °FClear.6 mph42%29.56 "Hg10 mi
10:00 pm50 °FClear.6 mph32%29.56 "Hg10 mi
9:00 pm52 °FClear.3 mph24%29.56 "Hg10 mi
8:00 pm55 °FClear.3 mph19%29.56 "Hg10 mi
7:00 pm57 °FClear.3 mph17%29.53 "Hg10 mi
6:00 pm63 °FSunny.3 mph19%29.50 "Hg10 mi
5:00 pm64 °FPassing clouds.3 mph16%29.50 "HgN/A
4:00 pm64 °FScattered clouds.3 mph16%29.50 "HgN/A
3:00 pm63 °FPartly sunny.3 mph19%29.53 "HgN/A
2:00 pm64 °FPartly sunny.13 mph19%29.50 "HgN/A
1:00 pm66 °FPartly sunny.3 mph15%29.53 "HgN/A
12:00 pm64 °FPartly sunny.1 mph15%29.53 "HgN/A
11:00 am63 °FPartly sunny.3 mph16%29.56 "HgN/A
10:00 am63 °FPassing clouds.6 mph15%29.59 "HgN/A
9:00 am61 °FSunny.3 mph17%29.59 "Hg10 mi
8:00 am59 °FSunny.6 mph21%29.59 "Hg10 mi
7:00 am55 °FPassing clouds.3 mph26%29.59 "HgN/A
6:00 am52 °FPassing clouds.3 mph30%29.59 "HgN/A
5:00 am50 °FPassing clouds.6 mph35%29.59 "HgN/A
Weather by CustomWeather, © 2017

See weather overviewHow to use our weather pages